Date String (YYYY-MM-DD hh:mm:ss) UTC,Instrument flags,Ambient pressure (hPa),Sample flow (lpm),Bypass flow (lpm),Sample temperature (°C),Ambient temperature (°C),ASC tube jacket temperature (°C),LED temperature (°C),Box temperature (°C),Sample RH (%),Span deviation,Mass concentration (μg/m³),Mass concentration (μg/m³),Mass concentration (μg/m³)
DateTimeUTC,F1_M11,P_M11,Q1_M11,Q2_M11,T1_M11,T2_M11,T3_M11,T4_M11,T5_M11,U1_M11,ZSPAN_M11,X0_M11,X2_M11,X1_M11
2022-07-30 22:00:00,,0828.2,5.01,0.00,29.3,27.2,00.0,38.0,31.1,18.3,0000.0,0010.39,0005.31,0004.92
2022-07-30 22:01:00,,0828.2,4.99,0.00,29.3,27.3,00.0,38.0,31.0,18.7,0000.0,0011.68,0005.31,0004.91
2022-07-30 22:02:00,,0828.3,4.99,0.00,29.2,27.4,00.0,38.0,31.1,18.9,0000.0,0011.72,0005.33,0004.92
2022-07-30 22:03:00,,0828.2,5.00,0.00,29.3,27.6,00.0,38.0,31.1,19.2,0000.0,0011.28,0005.30,0004.93
2022-07-30 22:04:00,,0828.2,5.01,0.00,29.3,27.8,00.0,38.0,31.2,19.0,0000.0,0011.14,0005.28,0004.94
2022-07-30 22:05:00,,0828.2,5.01,0.00,29.3,28.0,00.0,38.1,31.3,19.3,0000.0,0011.58,0005.33,0004.94
2022-07-30 22:06:00,,0828.3,5.00,0.00,29.4,28.2,00.0,38.1,31.4,19.5,0000.0,0012.43,0005.32,0004.93
2022-07-30 22:07:00,,0828.3,4.99,0.00,29.4,28.3,00.0,38.1,31.4,19.3,0000.0,0013.25,0005.32,0004.93
2022-07-30 22:08:00,,0828.2,5.01,0.00,29.5,28.0,00.0,38.1,31.4,18.6,0000.0,0014.64,0005.29,0004.92
2022-07-30 22:09:00,,0828.1,5.00,0.00,29.4,27.3,00.0,38.1,31.2,18.4,0000.0,0014.02,0005.28,0004.93
2022-07-30 22:10:00,,0828.1,5.00,0.00,29.4,27.2,00.0,38.1,31.2,18.2,0000.0,0013.93,0005.27,0004.93
2022-07-30 22:11:00,,0828.1,5.00,0.00,29.3,27.3,00.0,38.0,31.1,18.2,0000.0,0014.32,0005.25,0004.93
2022-07-30 22:12:00,,0828.1,5.00,0.00,29.3,27.5,00.0,38.0,31.1,18.2,0000.0,0013.24,0005.25,0004.94
2022-07-30 22:13:00,,0828.1,5.01,0.00,29.3,27.7,00.0,38.0,31.1,18.4,0000.0,0013.15,0005.26,0004.95
2022-07-30 22:14:00,,0828.1,4.99,0.00,29.3,27.9,00.0,38.1,31.2,19.0,0000.0,0013.26,0005.28,0004.95
2022-07-30 22:15:00,,0828.3,5.01,0.00,29.4,28.1,00.0,38.1,31.3,18.4,0000.0,0013.37,0005.31,0004.96
2022-07-30 22:16:00,,0828.1,4.99,0.00,29.4,28.2,00.0,38.1,31.4,18.7,0000.0,0013.13,0005.29,0004.97
2022-07-30 22:17:00,,0828.1,5.00,0.00,29.5,28.2,00.0,38.1,31.4,18.6,0000.0,0012.29,0005.28,0004.98
2022-07-30 22:18:00,,0828.1,4.99,0.00,29.4,27.5,00.0,38.1,31.2,19.0,0000.0,0011.67,0005.28,0004.98
2022-07-30 22:19:00,,0828.1,5.01,0.00,29.4,27.1,00.0,38.1,31.1,19.0,0000.0,0010.19,0005.30,0004.99
2022-07-30 22:20:00,,0828.0,5.00,0.00,29.3,27.2,00.0,38.0,31.1,18.7,0000.0,0010.26,0005.35,0005.00
2022-07-30 22:21:00,,0828.0,4.99,0.00,29.3,27.3,00.0,38.0,31.1,19.0,0000.0,0009.83,0005.35,0005.00
2022-07-30 22:22:00,,0828.0,5.01,0.00,29.3,27.5,00.0,38.0,31.1,19.0,0000.0,0008.80,0005.36,0005.00
2022-07-30 22:23:00,,0828.1,5.01,0.00,29.3,27.7,00.0,38.0,31.2,19.3,0000.0,0008.79,0005.39,0005.00
2022-07-30 22:24:00,,0828.0,5.00,0.00,29.3,27.9,00.0,38.1,31.2,18.4,0000.0,0009.13,0005.40,0005.00
2022-07-30 22:25:00,,0828.0,5.01,0.00,29.4,28.1,00.0,38.1,31.3,18.6,0000.0,0009.50,0005.40,0005.00
2022-07-30 22:26:00,,0828.0,5.00,0.00,29.4,28.3,00.0,38.1,31.4,18.7,0000.0,0009.74,0005.37,0005.00
2022-07-30 22:27:00,,0828.0,4.99,0.00,29.5,28.4,00.0,38.1,31.4,19.0,0000.0,0009.81,0005.36,0004.98
2022-07-30 22:28:00,,0828.0,5.00,0.00,29.5,27.8,00.0,38.1,31.3,18.9,0000.0,0009.80,0005.37,0004.98
2022-07-30 22:29:00,,0828.0,5.00,0.00,29.4,27.3,00.0,38.1,31.2,20.1,0000.0,0009.49,0005.37,0004.98
2022-07-30 22:30:00,,0828.0,4.99,0.00,29.4,27.3,00.0,38.1,31.2,20.3,0000.0,0009.54,0005.37,0004.97
2022-07-30 22:31:00,,0828.0,5.00,0.00,29.3,27.4,00.0,38.1,31.1,19.5,0000.0,0010.07,0005.34,0004.98
2022-07-30 22:32:00,,0828.0,4.99,0.00,29.3,27.6,00.0,38.1,31.1,19.5,0000.0,0010.62,0005.32,0004.97
2022-07-30 22:33:00,,0827.9,5.00,0.00,29.3,27.8,00.0,38.1,31.2,20.0,0000.0,0010.99,0005.33,0004.97
2022-07-30 22:34:00,,0828.0,5.01,0.00,29.4,28.0,00.0,38.1,31.3,19.3,0000.0,0011.21,0005.32,0004.98
2022-07-30 22:35:00,,0828.0,5.00,0.00,29.4,28.2,00.0,38.1,31.4,19.1,0000.0,0011.26,0005.31,0004.97
2022-07-30 22:36:00,,0828.0,5.00,0.00,29.5,28.4,00.0,38.1,31.4,20.0,0000.0,0011.00,0005.31,0004.97
2022-07-30 22:37:00,,0828.0,5.00,0.00,29.5,28.2,00.0,38.1,31.4,21.5,0000.0,0011.57,0005.35,0004.97
2022-07-30 22:38:00,,0828.0,5.01,0.00,29.5,27.5,00.0,38.1,31.3,21.2,0000.0,0011.93,0005.39,0004.98
2022-07-30 22:39:00,,0828.0,4.99,0.00,29.4,27.3,00.0,38.1,31.2,20.4,0000.0,0011.94,0005.38,0004.98
2022-07-30 22:40:00,,0828.1,5.01,0.00,29.4,27.3,00.0,38.1,31.2,19.0,0000.0,0012.04,0005.40,0004.98
2022-07-30 22:41:00,,0828.0,5.00,0.00,29.3,27.5,00.0,38.1,31.1,18.3,0000.0,0012.08,0005.41,0004.99
2022-07-30 22:42:00,,0827.9,5.00,0.00,29.3,27.6,00.0,38.1,31.1,18.6,0000.0,0011.54,0005.42,0004.99
2022-07-30 22:43:00,,0828.0,4.99,0.00,29.4,27.9,00.0,38.1,31.2,18.8,0000.0,0012.30,0005.45,0004.99
2022-07-30 22:44:00,,0828.0,5.01,0.00,29.4,28.1,00.0,38.1,31.3,19.4,0000.0,0012.95,0005.46,0004.99
2022-07-30 22:45:00,,0827.9,4.99,0.00,29.5,28.2,00.0,38.1,31.4,18.8,0000.0,0012.78,0005.47,0005.00
2022-07-30 22:46:00,,0827.9,5.01,0.00,29.5,28.4,00.0,38.2,31.5,19.8,0000.0,0012.31,0005.45,0005.01
2022-07-30 22:47:00,,0827.9,5.00,0.00,29.5,27.9,00.0,38.1,31.4,19.9,0000.0,0012.21,0005.46,0005.01
2022-07-30 22:48:00,,0827.9,4.99,0.00,29.4,27.3,00.0,38.1,31.2,19.8,0000.0,0011.30,0005.44,0005.00
2022-07-30 22:49:00,,0827.9,5.00,0.00,29.4,27.2,00.0,38.1,31.2,20.1,0000.0,0010.77,0005.37,0004.99
2022-07-30 22:50:00,,0827.9,5.00,0.00,29.4,27.3,00.0,38.1,31.1,19.9,0000.0,0011.18,0005.34,0004.97
2022-07-30 22:51:00,,0827.9,5.01,0.00,29.4,27.5,00.0,38.1,31.2,20.4,0000.0,0011.69,0005.32,0004.96
2022-07-30 22:52:00,,0827.9,4.99,0.00,29.4,27.7,00.0,38.1,31.2,20.1,0000.0,0011.64,0005.29,0004.94
2022-07-30 22:53:00,,0828.0,5.01,0.00,29.4,27.9,00.0,38.1,31.3,19.6,0000.0,0011.51,0005.27,0004.92
2022-07-30 22:54:00,,0827.9,5.00,0.00,29.4,28.2,00.0,38.1,31.4,18.7,0000.0,0010.41,0005.24,0004.92
2022-07-30 22:55:00,,0827.8,5.00,0.00,29.5,28.3,00.0,38.2,31.5,19.1,0000.0,0009.48,0005.23,0004.91
2022-07-30 22:56:00,,0827.9,5.01,0.00,29.5,28.3,00.0,38.2,31.5,18.8,0000.0,0009.36,0005.20,0004.89
2022-07-30 22:57:00,,0827.9,4.99,0.00,29.5,27.7,00.0,38.1,31.4,19.2,0000.0,0009.56,0005.20,0004.88
2022-07-30 22:58:00,,0827.8,5.00,0.00,29.5,27.3,00.0,38.1,31.2,20.1,0000.0,0009.65,0005.19,0004.88
2022-07-30 22:59:00,,0827.9,5.01,0.00,29.4,27.3,00.0,38.1,31.2,19.9,0000.0,0009.66,0005.19,0004.88
